Starlink 4118

operational
NORAD ID: 53538 Int'l Des: 2022-101 Owner: SPXS Country: US Constellation: starlink
LEOCIRCULAR

About Starlink 4118

Description loading...

Live Position

Loading 3D Globe...

Upcoming Passes

Altitude History

Altitude vs Time

uPlot chart will show altitude changes over time

Two-Line Element Set

1 53538U 22101M 25257.37579926 .00000750 00000-0 65219-4 0 9998
2 53538 53.2173 135.6262 0001422 99.4733 260.6420 15.08840860170374
Epoch: Sep 14, 2025 • Age: 21 hours

Current Status

Altitude 539.8 km
Velocity 7.60 km/s
Sub-Earth Point 16.27°N, 63.19°E
Launch Date Aug 19, 2022
Age 3 years
Type internet

Technical Details

Classification Payload
Mass 300.00 kg
Dry Mass 290.00 kg
Total Mass 300.00 kg
Length 0.20 m
Diameter 2.80 m
Span 9.00 m
Shape Box + pan
Manufacturer SPXS
Bus Type Starlink
Phase Status In Orbit
Owner/State SPXS/US

Large Constellations

Loading constellations...